False Pass, AK

7:32 PM HDT on July 24, 2017 (GMT -0900)
False Pass

Weather History for PAKF - October, 2012

Change the Weather History Date:

Sunday, October 28, 2012

  Actual Average (PACD) Record (PACD)
Temperature  
Mean Temperature 36 °F 38 °F  
Max Temperature 32 °F 42 °F 55 °F (1945)
Min Temperature 28 °F 33 °F 10 °F (1976)
Degree Days  
Heating Degree Days 30 27  
Month to date heating degree days 678  
Since 1 July heating degree days 2024  
Cooling Degree Days 0 0  
Month to date cooling degree days 0  
Year to date cooling degree days 0  
Moisture  
Dew Point 31 °F    
Average Humidity 84    
Maximum Humidity 92    
Minimum Humidity 71    
Precipitation  
Precipitation 0.00 in 0.14 in 2.52 in (1951)
Month to date precipitation 4.30  
Year to date precipitation 31.77  
Snow  
Snow 0.00 in 0.10 in 1.70 in (1981)
Month to date snowfall 1.9  
Since 1 July snowfall 1.9  
Since 1 September snowfall 1.9  
Snow Depth -    
Sea Level Pressure  
Sea Level Pressure 30.32 in    
Wind  
Wind Speed 6 mph (SW)    
Max Wind Speed 9 mph    
Max Gust Speed -    
Visibility 10 miles    
Events      
T = Trace of Precipitation, MM = Missing Value Source: NWS Daily Summary

Daily Weather History Graph

Daily Weather History Graph

Search for Another Location

Airport or City:

Trip Planner

Search our weather history database for the weather conditions in past years. The results will help you decide how hot, cold, wet, or windy it might be!

Date:

Astronomy

Oct. 28, 2012 Rise Set
Actual Time 8:50 AM HDT 6:23 PM HDT
Civil Twilight 8:12 AM HDT 7:01 PM HDT
Nautical Twilight 7:29 AM HDT 7:43 PM HDT
Astronomical Twilight 6:48 AM HDT 8:25 PM HDT
Moon 5:47 PM HDT (10/28) 7:53 AM HDT (10/28)
Length of Visible Light 10h 49m
Length of Day
9h 33m
Waxing Gibbous, 99% of the Moon is Illuminated
Oct 28
Waxing Gibbous
Oct 29
Full
Nov 6
Last Quarter
Nov 13
New
Nov 20
First Quarter

Hourly Weather History & Observations

Time (HDT) Temp. Windchill Dew Point Humidity Pressure Visibility Wind Dir Wind Speed Gust Speed Precip Events Conditions
12:01 AM 34.0 °F 28.0 °F 28.9 °F 82% 30.23 in 10.0 mi SSW 6.9 mph - N/A   Partly Cloudy
1:01 AM 37.0 °F 34.5 °F 30.0 °F 76% 30.23 in 10.0 mi Variable 3.5 mph - N/A   Mostly Cloudy
2:01 AM 33.1 °F 27.7 °F 28.9 °F 85% 30.25 in 10.0 mi SW 5.8 mph - N/A   Partly Cloudy
3:01 AM 35.1 °F - 30.0 °F 82% 30.25 in 10.0 mi Calm Calm - N/A   Partly Cloudy
4:01 AM 32.0 °F 25.6 °F 28.9 °F 88% 30.25 in 10.0 mi SSW 6.9 mph - N/A   Clear
5:01 AM 32.0 °F 25.6 °F 28.0 °F 85% 30.27 in 10.0 mi SSW 6.9 mph - N/A   Clear
6:01 AM 30.9 °F 27.5 °F 28.0 °F 89% 30.27 in 10.0 mi SSW 3.5 mph - N/A   Clear
7:01 AM 28.9 °F 22.8 °F 27.0 °F 92% 30.28 in 10.0 mi SSW 5.8 mph - N/A   Clear
8:01 AM 28.9 °F 22.8 °F 27.0 °F 92% 30.29 in 10.0 mi SSW 5.8 mph - N/A   Clear
9:01 AM 28.9 °F 21.9 °F 27.0 °F 92% 30.30 in 10.0 mi SSW 6.9 mph - N/A   Clear
10:01 AM 32.0 °F 27.5 °F 30.0 °F 92% 30.32 in 10.0 mi SSW 4.6 mph - N/A   Clear
11:01 AM 39.0 °F 36.8 °F 34.0 °F 82% 30.33 in 10.0 mi SW 3.5 mph - N/A   Clear
12:01 PM 41.0 °F 38.0 °F 36.0 °F 82% 30.34 in 10.0 mi North 4.6 mph - N/A   Clear
1:01 PM 42.1 °F 37.1 °F 36.0 °F 79% 30.35 in 10.0 mi North 8.1 mph - N/A   Clear
2:01 PM 42.1 °F 36.6 °F 35.1 °F 76% 30.35 in 10.0 mi NE 9.2 mph - N/A   Clear
3:01 PM 43.0 °F 37.7 °F 34.0 °F 71% 30.34 in 10.0 mi NNE 9.2 mph - N/A   Clear
4:01 PM 43.0 °F 38.2 °F 35.1 °F 74% 30.35 in 10.0 mi North 8.1 mph - N/A   Clear
5:01 PM 42.1 °F 37.1 °F 35.1 °F 76% 30.35 in 10.0 mi NW 8.1 mph - N/A   Clear
6:01 PM 39.9 °F 33.9 °F 33.1 °F 77% 30.36 in 10.0 mi NNW 9.2 mph - N/A   Clear
7:01 PM 34.0 °F - 30.0 °F 85% 30.38 in 10.0 mi Calm Calm - N/A   Clear
8:01 PM 32.0 °F 25.6 °F 28.9 °F 88% 30.39 in 10.0 mi SW 6.9 mph - N/A   Clear
9:01 PM 32.0 °F 24.8 °F 30.0 °F 92% 30.40 in 10.0 mi SSW 8.1 mph - N/A   Clear
10:01 PM 33.1 °F 28.7 °F 28.9 °F 85% 30.42 in 10.0 mi SSW 4.6 mph - N/A   Clear
11:01 PM 33.1 °F 30.0 °F 30.0 °F 89% 30.42 in 10.0 mi South 3.5 mph - N/A   Clear